[[{"header":{"parameterUnit":"m.s-1","parameterCategory":1,"la1":30.2992,"la2":30.254,"lo1":-89.0895,"lo2":-89.0443,"dy":0.0025,"dx":0.0025,"nx":19,"ny":19,"refTime":"2026-04-07T09:00:00:Z","depth":0,"parameterNumber":2,"parameterNumberName":"U-component_of_WINDS"},"data":[0,0,0,-7.7603,-7.7605,-7.7666,-7.7666,-7.7787,-7.7788,0,0,0,0,0,0,0,0,0,0,0,-7.7611,-7.7613,-7.7603,-7.7605,-7.7666,-7.7666,-7.7787,-7.7788,0,0,0,0,0,0,0,0,0,0,0,-7.7611,-7.7613,-7.7615,-7.7606,-7.7666,-7.7666,-7.7786,-7.7725,0,0,0,0,0,0,0,0,0,0,-7.7659,-7.7692,-7.7612,-7.7615,-7.7606,-7.7666,-7.7666,-7.7721,-7.7729,-7.7778,0,-7.7829,0,-7.7811,-7.7799,-7.78,0,0,0,-7.7585,-7.7686,-7.7679,-7.7615,-7.7607,-7.7666,-7.7633,-7.7725,-7.7734,-7.7789,-7.783,-7.7834,-7.7813,-7.78,-7.7801,-7.8154,-7.8157,0,0,-7.7582,-7.7636,-7.7673,-7.7686,-7.7679,-7.7631,-7.7635,-7.773,-7.7779,-7.7831,-7.7836,-7.7815,-7.7802,-7.7803,-7.8152,-7.8155,0,0,0,-7.7586,-7.7635,-7.7624,-7.7682,-7.769,-7.7633,-7.7638,-7.7774,-7.7766,-7.7837,-7.7817,-7.7803,-7.7805,-7.8149,-7.8153,-7.8334,0,0,0,-7.7583,-7.7637,-7.7624,-7.7658,-7.7689,-7.7733,-7.7681,-7.776,-7.7769,-7.7816,-7.7803,-7.7806,-7.8146,-7.8151,-7.8323,-7.8411,0,0,0,-7.7598,-7.7638,-7.7656,-7.766,-7.7688,-7.773,-7.7727,-7.776,-7.7758,-7.78,-7.7807,-7.8144,-7.815,-7.8313,-7.8394,-7.8521,0,0,0,-7.7631,-7.7815,-7.766,-7.7858,-7.7688,-7.7842,-7.7725,-7.7836,-7.7894,-7.7803,-7.8146,-7.8152,-7.831,-7.8384,-7.8511,-7.8639,-7.8697,0,0,-7.7893,-7.7848,-7.7961,-7.7824,-7.8019,-7.7828,-7.8049,-7.805,-7.8004,-7.8107,-7.8115,-7.8327,-7.8393,-7.8519,-7.9001,-7.9048,0,0,0,-7.8062,-7.8144,-7.8184,-7.8243,-7.8249,-7.8262,-7.8223,-7.8224,-7.8309,-7.8068,-7.8404,-7.8442,-7.8514,-7.8573,-7.8612,-7.8671,-7.8181,-7.8181,-7.818,-7.8512,-7.8445,-7.8627,-7.8568,-7.8627,-7.8587,-7.8628,-7.8622,-7.8535,-7.8617,-7.8647,-7.8948,-7.9019,-7.9048,-7.911,-7.8708,-7.8708,-7.8709,-7.871,-7.8892,-7.8998,-7.8881,-7.9016,-7.8944,-7.9057,-7.9027,-7.8962,-7.9057,-7.8918,-7.8978,-7.8834,-7.9101,-7.9152,-7.8723,-7.872,-7.8719,-7.8717,-7.8716,-7.9179,-7.9218,-7.9217,-7.9297,-7.9367,-7.93,-7.9398,-7.9328,-7.9263,-7.9322,-7.9348,-7.9345,-7.9334,-7.9339,-7.9341,-7.9342,-7.9342,-7.9343,-7.9344,-7.9479,-7.9471,-7.9563,-7.9588,-7.9617,-7.9648,-7.9612,-7.964,-7.9653,-7.9594,-7.9594,-7.9502,-7.9139,-7.9051,-7.936,-7.9357,-7.9355,-7.9353,-7.9352,-7.989,-7.9787,-7.9928,-7.9959,-7.9983,-8.0058,-7.9969,-8.0032,-8.0044,-8.0096,-7.9991,-7.9734,-7.9682,-7.965,-7.9577,-8.0003,-8.0003,-8.0003,-8.0003,-8.0134,-8.0102,-8.0232,-8.0286,-8.033,-8.0265,-8.0428,-8.0404,-8.0361,-8.0366,-8.0294,-8.019,-8.016,-8.0126,-8.0084,-8.0014,-8.0542,-8.0543,-8.0543,-8.0384,-8.0354,-8.0506,-8.0464,-8.0479,-8.0494,-8.0646,-8.0714,-8.0644,-8.0564,-8.0368,-8.0345,-8.0176,-8.0124,-8.004,-7.9976,-7.9846,0,0]},{"header":{"parameterUnit":"m.s-1","parameterCategory":1,"la1":30.2992,"la2":30.254,"lo1":-89.0895,"lo2":-89.0443,"dy":0.0025,"dx":0.0025,"nx":19,"ny":19,"refTime":"2026-04-07T09:00:00:Z","depth":0,"parameterNumber":3,"parameterNumberName":"V-component_of_WINDS"},"data":[0,0,0,0.0838,0.0836,0.0763,0.0763,0.0655,0.0654,0,0,0,0,0,0,0,0,0,0,0,0.0852,0.0851,0.0838,0.0836,0.0763,0.0762,0.0655,0.0654,0,0,0,0,0,0,0,0,0,0,0,0.0852,0.0851,0.085,0.0836,0.0763,0.0762,0.0655,0.0715,0,0,0,0,0,0,0,0,0,0,0.0788,0.0795,0.0852,0.085,0.0835,0.0763,0.0762,0.0718,0.0711,0.0682,0,0.0656,0,0.0653,0.0646,0.0645,0,0,0,0.0841,0.08,0.0788,0.085,0.0834,0.0763,0.0797,0.0714,0.0707,0.0673,0.0654,0.0651,0.0651,0.0645,0.0644,0.0465,0.0464,0,0,0.0845,0.0834,0.0793,0.0782,0.0794,0.0799,0.0795,0.071,0.0688,0.0654,0.0648,0.065,0.0644,0.0643,0.0466,0.0465,0,0,0,0.0853,0.0837,0.0827,0.0786,0.0774,0.0797,0.0792,0.0692,0.069,0.0647,0.0648,0.0643,0.0642,0.0467,0.0466,0.0403,0,0,0,0.0856,0.0842,0.0828,0.0821,0.0776,0.0732,0.0775,0.0695,0.0686,0.0649,0.0643,0.0641,0.0469,0.0466,0.0407,0.0373,0,0,0,0.0859,0.0842,0.0829,0.082,0.0789,0.0734,0.0727,0.0694,0.0686,0.0645,0.064,0.0469,0.0467,0.0411,0.038,0.0323,0,0,0,0.0859,0.0773,0.0828,0.0733,0.0789,0.0697,0.0728,0.0659,0.0616,0.0643,0.0468,0.0466,0.0412,0.0384,0.0327,0.0271,0.0248,0,0,0.0744,0.0759,0.0704,0.0751,0.0646,0.0709,0.0595,0.0564,0.0569,0.0499,0.0495,0.0406,0.038,0.0324,0.0125,0.0106,0,0,0,0.0664,0.0623,0.0598,0.0558,0.0535,0.0512,0.0501,0.0491,0.0432,0.0532,0.0371,0.0356,0.0323,0.0297,0.0281,0.0253,0.0454,0.0454,0.0455,0.0483,0.0497,0.0406,0.0411,0.0372,0.0364,0.0333,0.0317,0.034,0.0302,0.028,0.0158,0.0127,0.0115,0.0086,0.0254,0.0254,0.0254,0.0254,0.0315,0.0259,0.0296,0.0221,0.0236,0.0172,0.0162,0.0181,0.0123,0.0175,0.0147,0.02,0.0095,0.0069,0.0249,0.025,0.025,0.0251,0.0251,0.0196,0.0172,0.0163,0.0108,0.0064,0.0073,0.0017,0.0033,0.0046,0.0019,-0.0003,-0.0002,-0.0001,0.0008,0.0008,0.0007,0.0007,0.0006,0.0006,0.0075,0.0067,0.0018,-0.0011,-0.0033,-0.0061,-0.0068,-0.009,-0.0111,-0.0096,-0.0096,-0.007,0.0083,0.012,-0.0,0.0001,0.0002,0.0002,0.0003,-0.0106,-0.0061,-0.0137,-0.0159,-0.0191,-0.0235,-0.0212,-0.0259,-0.0275,-0.0303,-0.0269,-0.0158,-0.0143,-0.013,-0.01,-0.027,-0.027,-0.027,-0.027,-0.0208,-0.0197,-0.0269,-0.0306,-0.0339,-0.0326,-0.0412,-0.0417,-0.0416,-0.0425,-0.0397,-0.0355,-0.0342,-0.0335,-0.0318,-0.029,-0.0505,-0.0505,-0.0505,-0.0319,-0.031,-0.0387,-0.0382,-0.0405,-0.0426,-0.0506,-0.0551,-0.054,-0.0514,-0.0432,-0.0423,-0.0354,-0.0331,-0.0308,-0.0281,-0.0229,0,0]}]]